Вернуться в каталог

COSMOS 2251 DEB

АктивенLEO
NORAD 33899·DEBRIS·🇷🇺 Russia

Запущен Jun 16, 1993 с Plesetsk Cosmodrome

Loading…

Ближайшие Пролёты (ближайшие 24 часа)

TLE

СвежийSource: Space-Track

Эпоха: Sep 14, 2026, 12:54 UTC

1 33899U 93036DC  26257.53760837  .00001513  00000-0  29417-3 0  9990
2 33899  74.0501 278.0551 0058261 269.0245 252.8173 14.62992900928705

Отслеживайте COSMOS 2251 DEB в реальном времени с AllMySat

Download on the App Store